Vertical_Velocity
-2 -2 -2 -3 -1 -1 -2 -3 -2 -4 -1 -0 1 1 -1 -4 -2 -2 2 -1 1 0 5 3 0 4 10 1 -4 8 5 -8 1 4 5 11 6 3 3 4 -1 0 -2 -1 2
-3 -3 -3 -2 -1 -2 -2 -3 -2 -1 -3 -2 -1 -2 -1 2 -1 -2 -2 -7 -0 -2 1 7 5 4 2 2 -4 -10 -4 -8 -6 11 2 -1 15 -3 -0 2 -1 -1 1 -3 -1
1 -0 -3 -3 -3 -1 -1 -2 -3 -1 -2 -1 -0 -2 3 -2 -1 -4 -1 -1 3 3 1 -2 8 0 -5 2 3 -9 -7 -4 -9 -14 -3 -2 5 0 4 2 6 1 4 -3 -2
-2 -4 -1 -1 -4 -2 -2 1 -2 1 -2 -2 -2 -1 -0 0 -2 -3 -3 -3 11 -4 3 1 -4 5 1 1 -3 4 -9 -5 -9 -3 -6 -3 -8 -11 -1 0 5 11 5 2 1
-0 -1 -2 -3 -2 -1 -2 -1 2 1 -0 -1 -2 -2 2 -1 0 2 1 -5 0 4 -1 3 -2 -1 -3 -2 0 -0 -1 1 -8 -7 -3 -3 -5 1 3 -1 -0 1 -1 -0 -2
-2 -1 2 -0 -1 -4 -4 -5 -4 -1 1 -1 -2 -3 -3 2 -1 -1 1 -0 -1 0 1 -9 1 7 7 1 3 6 -4 4 4 4 6 -5 -7 -4 -2 -1 -1 4 0 1 1
-1 -1 -3 -1 -1 -1 -1 -4 -5 -5 -2 1 -0 -3 -4 -3 1 -2 -3 2 0 1 -0 12 -1 -2 0 8 1 4 6 1 1 2 -1 3 -8 -3 4 -2 -2 -2 3 5 -1
-1 -2 -2 -1 -2 1 -1 -4 -4 -3 -4 -3 1 1 -2 -0 -1 0 -2 -1 1 -3 -0 4 10 7 4 -0 2 -0 7 5 0 -2 -4 2 -8 -2 -5 -2 -1 -1 -1 4 5
-2 -1 -0 -1 2 3 2 0 -1 -3 -3 -0 -3 1 1 -2 -3 -4 1 2 0 1 -0 0 3 5 7 2 8 7 -0 -2 -1 2 -0 0 -5 -3 -2 -1 -5 1 -2 2 2
0 0 -1 -2 -3 -2 1 1 0 1 -1 -3 -2 -2 2 1 0 -3 -2 1 2 3 5 2 -3 2 2 6 -10 -7 -2 -2 -2 -5 -3 1 -2 -1 -2 -3 -3 2 1 0 0
-1 -1 -1 1 1 -5 -6 1 1 -0 3 1 -2 -2 0 -1 1 1 -1 1 2 2 -2 2 -3 -11 -8 -5 1 3 -4 -4 9 2 0 4 -3 1 1 -2 -2 0 -0 -2 1
-2 0 0 -2 -0 1 2 -3 1 -0 -5 -1 1 -1 0 0 -1 -2 1 -3 -0 -1 4 6 -15 -5 2 1 2 5 3 -6 -4 5 4 5 -8 -0 -1 -0 1 -2 -1 -1 -2
-1 -1 -1 -1 -1 -4 2 3 -1 1 -1 0 -1 -0 1 -0 -3 2 1 -1 0 2 -0 2 -9 13 5 4 3 -1 -2 -1 4 -2 -0 -0 -13 -6 -3 -5 -2 -3 -3 -6 -6
-0 -1 0 2 -1 1 -3 -1 2 0 -4 1 -0 -2 -2 0 -3 -4 2 1 -2 -1 6 4 9 3 3 -0 10 -4 3 4 5 7 -5 3 -14 -26 -6 0 -5 -1 -5 2 -1
1 -1 -0 -0 1 1 2 2 0 1 -1 0 2 3 2 1 0 1 4 3 -2 3 1 -12 -4 3 -6 -7 2 -6 6 3 10 2 12 8 7 -18 -10 -22 -6 -5 -4 2 0
-2 -1 -1 0 4 4 3 2 3 1 -10 -0 2 2 1 2 0 -0 2 5 3 5 -0 -1 7 -9 -2 -1 4 15 9 7 5 9 13 -3 3 -30 -20 -9 -12 -4 -8 -4 -2
-2 0 0 -2 -2 1 2 3 2 0 -0 4 2 0 3 0 0 -1 0 -0 -3 3 -4 14 -10 0 6 2 8 14 11 3 9 9 -11 3 13 -77 -5 -0 -9 -5 -0 3 4
1 0 2 1 2 3 2 4 4 6 0 1 1 3 -2 7 -4 -1 -2 -3 0 8 1 -0 -8 8 1 -26 -8 -10 1 -4 -4 -2 -9 8 -7 -39 -16 -17 -4 -12 5 -4 -4
-2 0 2 2 1 2 3 2 -2 1 -0 2 2 4 -1 0 10 3 2 -2 0 9 2 0 -10 17 -0 9 31 -14 10 -19 6 4 4 -5 -12 -1 -1 -3 -5 -7 -0 -2 -2
-4 -3 4 2 3 3 3 -5 -1 2 2 2 2 3 0 2 3 5 0 1 -1 1 10 5 3 1 -1 7 -1 -3 13 13 14 3 1 -0 -1 -10 -6 -8 -5 -8 -2 5 1
-7 -3 2 4 5 5 -1 -2 0 4 -4 1 0 2 -1 -3 0 -2 -2 -4 -1 -2 2 3 11 -10 -3 -11 -5 11 8 7 3 1 -0 0 -8 3 -10 -8 -8 -3 -2 5 6
2 -0 -1 -3 -1 2 2 7 5 5 2 8 -2 -4 -2 2 -5 7 -4 4 -1 2 -0 2 3 0 -19 3 2 2 -2 19 19 -6 -2 2 -32 6 2 2 5 -1 2 2 1
-5 -4 1 6 -0 2 4 -2 4 -9 1 3 1 -2 -2 2 5 2 4 0 2 3 4 2 9 1 -2 5 2 11 11 18 10 1 -4 12 -2 10 2 1 -3 5 5 -0 4
-2 -4 -4 -4 1 7 6 -3 -4 1 2 5 7 5 7 -1 6 3 -3 -0 -3 0 3 6 -4 5 -2 -10 14 -6 5 3 7 5 -2 -5 -19 -10 -5 -1 4 7 2 4 -3
-1 -2 -1 -5 2 4 3 4 5 -3 -7 3 -10 2 9 2 -2 -7 -6 -7 -1 -3 -1 5 -4 5 -1 1 1 -6 -14 -0 12 2 10 -24 -5 -10 -1 -10 -12 -0 5 4 -2
-2 -1 1 1 6 7 4 4 4 -8 4 -5 11 16 6 6 8 -0 -1 7 2 -7 -3 -6 -15 1 -12 1 4 -4 4 -2 -7 -5 -1 -3 -21 -3 -8 -2 -6 -3 -0 8 7
-2 -0 1 -1 1 -1 -3 -6 -5 -5 -3 -5 -4 -7 -11 -8 -4 -1 1 -4 5 1 2 6 1 2 -12 -3 3 4 -16 -3 -5 1 -0 1 -8 4 -4 7 -2 -6 -7 3 8
Height
3092 3089 3086 3083 3081 3079 3076 3073 3071 3068 3066 3064 3063 3061 3060 3059 3057 3056 3056 3056 3058 3060 3061 3065 3070 3072 3074 3076 3081 3079 3082 3081 3087 3089 3093 3097 3099 3102 3103 3105 3107 3111 3113 3116 3118
3093 3090 3086 3084 3080 3078 3075 3073 3070 3068 3065 3064 3062 3060 3058 3056 3055 3054 3056 3054 3057 3061 3063 3065 3067 3070 3072 3075 3078 3080 3081 3081 3084 3087 3090 3091 3095 3099 3104 3105 3108 3110 3112 3115 3117
3093 3090 3086 3083 3080 3077 3074 3071 3069 3067 3065 3063 3062 3059 3056 3055 3054 3053 3054 3055 3056 3059 3062 3065 3066 3069 3072 3075 3077 3078 3079 3081 3084 3086 3089 3093 3095 3099 3102 3104 3106 3109 3110 3112 3115
3092 3089 3086 3082 3079 3076 3073 3071 3068 3066 3065 3063 3062 3060 3057 3055 3056 3053 3053 3055 3056 3057 3061 3063 3066 3068 3072 3072 3075 3078 3078 3079 3082 3086 3087 3091 3092 3095 3100 3103 3105 3105 3107 3109 3113
3091 3088 3086 3083 3079 3076 3073 3070 3068 3066 3064 3063 3062 3060 3058 3057 3055 3053 3053 3054 3055 3056 3059 3062 3064 3067 3068 3072 3075 3075 3080 3081 3081 3087 3088 3089 3091 3097 3098 3100 3103 3105 3107 3108 3109
3091 3087 3084 3081 3079 3076 3073 3070 3067 3065 3063 3061 3061 3060 3058 3056 3054 3053 3053 3054 3054 3056 3058 3061 3064 3068 3070 3072 3073 3075 3080 3081 3085 3085 3087 3088 3089 3093 3095 3096 3099 3101 3103 3104 3106
3090 3087 3084 3080 3077 3075 3071 3068 3066 3064 3062 3059 3058 3057 3056 3055 3052 3052 3053 3053 3053 3056 3057 3059 3061 3066 3068 3070 3071 3073 3077 3079 3081 3083 3084 3086 3087 3085 3090 3093 3095 3097 3099 3100 3102
3090 3087 3083 3080 3075 3072 3070 3067 3064 3062 3060 3058 3056 3055 3054 3052 3051 3050 3051 3052 3053 3054 3056 3059 3061 3063 3065 3067 3069 3071 3074 3073 3074 3076 3079 3083 3078 3082 3085 3088 3091 3093 3095 3096 3097
3089 3085 3082 3078 3074 3070 3067 3064 3061 3059 3057 3055 3054 3052 3051 3050 3049 3049 3049 3050 3051 3052 3054 3058 3060 3062 3063 3064 3067 3066 3066 3068 3072 3074 3076 3078 3075 3077 3080 3082 3084 3087 3089 3090 3091
3087 3083 3080 3076 3072 3068 3065 3061 3058 3056 3053 3051 3050 3052 3050 3049 3047 3047 3048 3048 3049 3051 3052 3054 3057 3059 3060 3060 3060 3063 3065 3066 3068 3071 3071 3070 3070 3073 3075 3077 3079 3080 3082 3083 3086
3084 3081 3077 3074 3071 3067 3064 3060 3059 3054 3049 3048 3047 3045 3046 3046 3045 3045 3046 3047 3047 3048 3049 3051 3052 3051 3056 3060 3062 3063 3065 3066 3066 3068 3070 3068 3068 3070 3071 3070 3072 3074 3076 3079 3081
3081 3077 3074 3071 3067 3064 3061 3058 3054 3052 3046 3043 3042 3041 3041 3042 3041 3041 3043 3045 3046 3046 3047 3050 3045 3049 3054 3057 3059 3060 3060 3061 3064 3065 3065 3063 3062 3065 3064 3064 3066 3068 3070 3073 3075
3077 3074 3070 3067 3064 3061 3057 3054 3051 3046 3042 3037 3035 3035 3037 3038 3038 3038 3038 3040 3041 3041 3043 3044 3045 3049 3049 3051 3053 3055 3057 3058 3061 3060 3059 3058 3054 3056 3057 3057 3059 3060 3064 3065 3068
3073 3070 3066 3063 3061 3056 3053 3051 3048 3044 3038 3031 3029 3030 3031 3032 3033 3033 3035 3036 3036 3038 3039 3039 3041 3043 3044 3045 3049 3047 3051 3055 3056 3057 3054 3056 3049 3048 3050 3050 3050 3053 3057 3061 3062
3069 3066 3062 3057 3055 3053 3051 3047 3045 3044 3042 3031 3028 3027 3027 3029 3030 3030 3030 3030 3031 3033 3035 3031 3033 3036 3038 3039 3045 3041 3048 3049 3051 3050 3051 3047 3048 3033 3041 3041 3042 3047 3050 3053 3055
3065 3061 3058 3055 3052 3049 3046 3045 3044 3045 3035 3028 3026 3026 3027 3026 3027 3027 3028 3027 3027 3028 3028 3028 3030 3030 3030 3036 3038 3041 3043 3044 3044 3044 3037 3038 3042 3017 3025 3028 3038 3042 3045 3047 3049
3060 3057 3053 3049 3048 3045 3043 3043 3045 3038 3030 3028 3026 3025 3025 3025 3024 3024 3025 3025 3024 3025 3023 3023 3022 3024 3026 3028 3031 3034 3037 3035 3034 3032 3022 3028 3033 2993 3013 3021 3028 3033 3037 3039 3041
3054 3051 3048 3044 3042 3040 3039 3041 3039 3030 3029 3027 3025 3024 3023 3023 3022 3021 3020 3020 3022 3022 3019 3019 3018 3018 3017 3018 3019 3021 3024 3025 3021 3016 3012 3018 3010 2997 3007 3016 3021 3024 3028 3030 3032
3048 3046 3042 3039 3036 3034 3034 3033 3031 3029 3027 3026 3024 3022 3022 3022 3021 3018 3017 3016 3016 3018 3018 3014 3011 3013 3013 3014 3016 3015 3013 3015 3016 3012 3010 3003 2999 2998 3002 3006 3011 3015 3017 3019 3022
3042 3040 3038 3034 3032 3030 3029 3027 3026 3025 3024 3025 3024 3023 3021 3020 3019 3017 3015 3013 3011 3012 3012 3009 3006 3007 3008 3009 3009 3007 3010 3011 3007 3001 2994 2991 2991 2987 2991 2998 3003 3005 3007 3009 3012
3037 3034 3034 3030 3028 3026 3024 3021 3020 3021 3020 3022 3020 3018 3017 3017 3015 3014 3011 3011 3009 3009 3008 3006 3004 3002 3002 3002 3004 3003 3000 3001 3000 2995 2989 2989 2985 2985 2987 2992 2995 2999 3000 3001 3004
3032 3030 3029 3027 3028 3024 3021 3019 3018 3016 3016 3014 3012 3012 3010 3009 3007 3007 3005 3006 3005 3004 3004 3005 2999 2995 2995 2996 2996 2997 2995 2993 2989 2986 2981 2981 2979 2982 2983 2985 2988 2991 2995 2996 2998
3026 3025 3024 3022 3020 3019 3017 3016 3016 3014 3015 3012 3010 3010 3009 3007 3006 3002 3002 3001 3000 3000 2999 2999 2995 2991 2986 2988 2987 2988 2988 2988 2989 2985 2979 2974 2971 2975 2978 2982 2984 2986 2988 2991 2993
3021 3020 3020 3017 3016 3015 3013 3012 3011 3011 3009 3008 3006 3006 3005 3004 3002 2999 2999 2998 2998 2996 2995 2993 2992 2992 2990 2988 2987 2984 2982 2983 2984 2982 2978 2975 2971 2971 2973 2973 2975 2980 2981 2985 2988
3016 3013 3012 3011 3011 3010 3009 3009 3007 3006 3004 3004 3001 3001 3000 2999 2997 2995 2994 2993 2992 2991 2990 2988 2984 2984 2981 2981 2981 2979 2977 2975 2975 2976 2975 2970 2969 2968 2971 2972 2971 2970 2973 2977 2979
3012 3010 3009 3008 3007 3006 3003 3002 3001 2999 2998 2998 2999 2996 2994 2993 2993 2991 2990 2988 2986 2985 2984 2983 2976 2976 2971 2972 2970 2967 2968 2968 2968 2967 2964 2964 2959 2966 2966 2966 2966 2966 2966 2968 2970
3009 3007 3005 3005 3002 3000 2997 2996 2994 2993 2991 2991 2990 2989 2988 2988 2986 2985 2981 2979 2978 2976 2975 2974 2972 2969 2960 2965 2962 2954 2957 2958 2957 2958 2959 2955 2956 2955 2955 2957 2959 2960 2958 2959 2963